| time (UTC) | temp C | wind direction | speed KPH | gust KPH | rain 1hr cm | rain 24hr cm | rain mn cm | humidity % | barometer mb |
| 20260504193705 | 23 | 204 | 4.8 | 9.7 | 0.00 | 0.00 | 0.00 | 46 | 1010.5 |
| 20260504193204 | 23 | 172 | 4.8 | 19.3 | 0.00 | 0.00 | 0.00 | 45 | 1010.5 |
| 20260504190704 | 23 | 250 | 4.8 | 12.9 | 0.00 | 0.00 | 0.00 | 48 | 1010.7 |
| 20260504190204 | 23 | 189 | 6.4 | 14.5 | 0.00 | 0.00 | 0.00 | 49 | 1010.6 |
| 20260504183704 | 22 | 189 | 4.8 | 12.9 | 0.00 | 0.00 | 0.00 | 49 | 1010.8 |
| 20260504183205 | 22 | 223 | 4.8 | 14.5 | 0.00 | 0.00 | 0.00 | 49 | 1010.8 |
| 20260504180704 | 22 | 208 | 4.8 | 14.5 | 0.00 | 0.00 | 0.00 | 49 | 1010.9 |
| 20260504180203 | 22 | 254 | 3.2 | 14.5 | 0.00 | 0.00 | 0.00 | 50 | 1010.9 |
| 20260504173705 | 21 | 261 | 3.2 | 8.0 | 0.00 | 0.00 | 0.00 | 53 | 1010.8 |
| 20260504173204 | 21 | 183 | 4.8 | 14.5 | 0.00 | 0.00 | 0.00 | 54 | 1010.8 |
| 20260504170704 | 20 | 177 | 3.2 | 11.3 | 0.00 | 0.00 | 0.00 | 59 | 1010.8 |
| 20260504150705 | 15 | 267 | 1.6 | 3.2 | 0.00 | 0.00 | 0.00 | 75 | 1010.2 |
| 20260504150204 | 15 | 267 | 1.6 | 3.2 | 0.00 | 0.00 | 0.00 | 75 | 1010.2 |
| 20260504140704 | 14 | 71 | 0.0 | 0.0 | 0.00 | 0.00 | 0.00 | 75 | 1009.8 |
| 20260504130704 | 12 | 71 | 0.0 | 0.0 | 0.00 | 0.00 | 0.00 | 78 | 1009.3 |
| 20260504130204 | 12 | 71 | 0.0 | 0.0 | 0.00 | 0.00 | 0.00 | 78 | 1009.2 |
| 20260504110704 | 13 | 71 | 0.0 | 0.0 | 0.00 | 0.00 | 0.00 | 75 | 1009.1 |
| 20260504110204 | 13 | 71 | 0.0 | 3.2 | 0.00 | 0.00 | 0.00 | 75 | 1009.1 |
| 20260504100204 | 14 | 98 | 0.0 | 0.0 | 0.00 | 0.00 | 0.00 | 75 | 1009.0 |
| 20260504080704 | 16 | 66 | 0.0 | 0.0 | 0.00 | 0.00 | 0.00 | 68 | 1008.9 |
| 20260504080204 | 17 | 66 | 0.0 | 1.6 | 0.00 | 0.00 | 0.00 | 67 | 1009.0 |
| 20260504070205 | 17 | 66 | 0.0 | 3.2 | 0.00 | 0.00 | 0.00 | 62 | 1009.0 |
| 20260504050704 | 20 | 24 | 1.6 | 4.8 | 0.00 | 0.00 | 0.00 | 57 | 1008.9 |
| 20260504050204 | 20 | 23 | 1.6 | 4.8 | 0.00 | 0.00 | 0.00 | 58 | 1009.0 |
| 20260504043704 | 21 | 33 | 1.6 | 4.8 | 0.00 | 0.00 | 0.00 | 55 | 1009.0 |
| 20260504043204 | 21 | 14 | 1.6 | 4.8 | 0.00 | 0.00 | 0.00 | 55 | 1008.9 |
| 20260504040703 | 21 | 22 | 3.2 | 4.8 | 0.00 | 0.00 | 0.00 | 54 | 1008.8 |
| 20260504040204 | 21 | 318 | 1.6 | 8.0 | 0.00 | 0.00 | 0.00 | 54 | 1008.8 |
| 20260504033204 | 23 | 356 | 3.2 | 11.3 | 0.00 | 0.00 | 0.00 | 49 | 1008.6 |
| 20260504030704 | 24 | 322 | 3.2 | 4.8 | 0.00 | 0.00 | 0.00 | 46 | 1008.6 |
| 20260504030204 | 24 | 341 | 3.2 | 12.9 | 0.00 | 0.00 | 0.00 | 44 | 1008.6 |
| 20260504023706 | 25 | 326 | 4.8 | 12.9 | 0.00 | 0.00 | 0.00 | 41 | 1008.5 |
| 20260504023204 | 26 | 326 | 1.6 | 14.5 | 0.00 | 0.00 | 0.00 | 40 | 1008.6 |
| 20260504020704 | 26 | 10 | 4.8 | 12.9 | 0.00 | 0.00 | 0.00 | 39 | 1008.5 |
| 20260504020204 | 27 | 9 | 4.8 | 14.5 | 0.00 | 0.00 | 0.00 | 39 | 1008.6 |
| 20260504013705 | 28 | 317 | 6.4 | 14.5 | 0.00 | 0.00 | 0.00 | 40 | 1008.7 |
| 20260504013204 | 28 | 330 | 4.8 | 14.5 | 0.00 | 0.00 | 0.00 | 39 | 1008.7 |
| 20260504010704 | 29 | 282 | 4.8 | 14.5 | 0.00 | 0.00 | 0.00 | 36 | 1008.8 |
| 20260504010204 | 29 | 304 | 3.2 | 12.9 | 0.00 | 0.00 | 0.00 | 38 | 1008.9 |
| 20260504003704 | 29 | 8 | 3.2 | 11.3 | 0.00 | 0.00 | 0.00 | 38 | 1009.0 |
| 20260504000212 | 28 | 248 | 4.8 | 0.0 | 0.00 | 0.00 | 0.00 | 37 | 1009.4 |
| 20260504000205 | 28 | 341 | 4.8 | 19.3 | 0.00 | 0.00 | 0.00 | 37 | 1009.4 |
| 20260503233704 | 28 | 343 | 3.2 | 12.9 | 0.00 | 0.00 | 0.00 | 40 | 1009.6 |
| 20260503230704 | 29 | 342 | 6.4 | 12.9 | 0.00 | 0.00 | 0.00 | 38 | 1010.0 |
| 20260503230204 | 29 | 0 | 3.2 | 19.3 | 0.00 | 0.00 | 0.00 | 39 | 1010.1 |
| 20260503213704 | 28 | 342 | 4.8 | 11.3 | 0.00 | 0.00 | 0.00 | 40 | 1010.9 |
| 20260503210204 | 26 | 268 | 3.2 | 19.3 | 0.00 | 0.00 | 0.00 | 43 | 1011.3 |
| 20260503203704 | 26 | 294 | 4.8 | 16.1 | 0.00 | 0.00 | 0.00 | 44 | 1011.6 |
| 20260503203204 | 26 | 293 | 4.8 | 19.3 | 0.00 | 0.00 | 0.00 | 44 | 1011.7 |
| 20260503200704 | 26 | 346 | 6.4 | 14.5 | 0.00 | 0.00 | 0.00 | 47 | 1012.0 |
| 20260503200205 | 25 | 307 | 4.8 | 19.3 | 0.00 | 0.00 | 0.00 | 46 | 1012.0 |